sat.trackr.live / text

‹ back to catalog

STARLINK-3154

NORAD 49417 · 2021-104K

PAYLOAD ACTIVE UNKNOWN

§ Identity

Operator
Country
US
Launch date
2021-11-13
Launch site
AFETR
Launch vehicle
Mass (kg)
RCS (m²)

Purposes: comms

External: N2YO · Heavens-Above · Gunter

§ Orbital elements

Epoch: 2026-09-02T22:21:59.608224Z

Period
93.85 min
Inclination
53.1604°
Eccentricity
0.0001150
Mean motion
15.34384701 rev/d
Perigee alt
462.0 km
Apogee alt
463.5 km
Semi-major
6,840.9 km
B*
1.2531e-5
RAAN
134.1945°
Arg perigee
91.5076°
Mean anomaly
268.6058°
Rev number
26,564

§ Raw data

STARLINK-31541 49417U 21104K   26245.93193991  .00000047  00000+0  12531-4 0  99922 49417  53.1604 134.1945 0001150  91.5076 268.6058 15.34384701265642

JSON: /api/v1/satellites/49417 · /tle

For live sub-satellite position, see the globe view (requires WebGL).

§ Visibility from observer

Set your observer location to see the next 7 days of passes ≥ 10°. The values pass through the URL so the page stays shareable.

No JS? Fill the form by hand. The geolocation button needs JavaScript.